This demonstration page uses our WeatherBlox Daily Observations layout. Learn more.

Left ArrowRight Arrow

Hourly Observations for January 24, 2017

Temp ( °F °C ) Dew Point ( °F °C ) Humidity (%) Winds ( mph kmh ) Pressure ( in mb ) Visibility ( mi km ) Precip ( " mm )
12:16 am 00:16 Cloudy 37 3 37 3 100 100 NNW 12 19 29.77 1008 10 16.0934 N/A
12:36 am 00:36 Cloudy 37 3 37 3 100 100 NW 10 17 29.8 1009 10 16.0934 N/A
12:55 am 00:55 Cloudy 37 3 37 3 100 100 NW 10 17 29.8 1009 7 11.26538 N/A
1:16 am 01:16 Cloudy 37 3 37 3 100 100 NW 10 17 29.8 1009 7 11.26538 N/A
1:36 am 01:36 Cloudy 37 3 37 3 100 100 NW 9 15 29.8 1009 5 8.0467 N/A
1:55 am 01:55 Cloudy 37 3 37 3 100 100 NW 9 15 29.77 1008 5 8.0467 N/A
2:16 am 02:16 Cloudy 37 3 37 3 100 100 NW 6 9 29.8 1009 5 8.0467 N/A
2:36 am 02:36 Cloudy 37 3 37 3 100 100 WNW 10 17 29.8 1009 4 6.43736 N/A
2:55 am 02:55 Cloudy 37 3 37 3 100 100 NW 8 13 29.8 1009 3 4.82802 N/A
3:16 am 03:16 Cloudy 37 3 37 3 100 100 NW 10 17 29.8 1009 3 4.82802 N/A
3:35 am 03:35 Cloudy 37 3 37 3 100 100 NW 9 15 29.83 1010 3 4.82802 N/A
3:56 am 03:56 Cloudy 37 3 37 3 100 100 NW 10 17 29.8 1009 5 8.0467 N/A
4:16 am 04:16 Cloudy 37 3 37 3 100 100 NW 10 17 29.8 1009 5 8.0467 N/A
4:35 am 04:35 Cloudy 37 3 37 3 100 100 NW 10 17 29.83 1010 7 11.26538 N/A
4:56 am 04:56 Cloudy 37 3 37 3 100 100 NW 12 19 29.83 1010 5 8.0467 N/A
5:15 am 05:15 Cloudy 37 3 37 3 100 100 NW 8 13 29.83 1010 5 8.0467 N/A
5:36 am 05:36 Cloudy 37 3 37 3 100 100 NW 10 17 29.83 1010 7 11.26538 N/A
5:56 am 05:56 Cloudy 37 3 37 3 100 100 NW 9 15 29.83 1010 7 11.26538 N/A
6:15 am 06:15 Cloudy 37 3 36 2 93 93 NW 9 15 29.85 1011 7 11.26538 N/A
6:36 am 06:36 Cloudy 37 3 36 2 93 93 NW 9 15 29.85 1011 7 11.26538 N/A
6:55 am 06:55 Cloudy 37 3 36 2 93 93 NW 12 19 29.85 1011 7 11.26538 N/A
7:16 am 07:16 Cloudy 37 3 36 2 93 93 WNW 10 17 29.85 1011 10 16.0934 N/A
7:36 am 07:36 Cloudy 37 3 36 2 93 93 WNW 10 17 29.88 1012 10 16.0934 N/A
7:55 am 07:55 Cloudy 37 3 34 1 87 87 WNW 10 17 29.88 1012 10 16.0934 N/A
8:16 am 08:16 Cloudy 37 3 34 1 87 87 NW 10 17 29.91 1013 10 16.0934 N/A
8:36 am 08:36 Cloudy 37 3 34 1 87 87 NW 10 17 29.91 1013 10 16.0934 N/A
8:55 am 08:55 Cloudy 37 3 34 1 87 87 NW 8 13 29.91 1013 10 16.0934 N/A
9:16 am 09:16 Cloudy 37 3 34 1 87 87 NW 10 17 29.91 1013 10 16.0934 N/A
9:36 am 09:36 Cloudy 37 3 34 1 87 87 NW 9 15 29.91 1013 10 16.0934 N/A
9:55 am 09:55 Cloudy 37 3 34 1 87 87 NW 8 13 29.91 1013 10 16.0934 N/A
10:16 am 10:16 Cloudy 37 3 34 1 87 87 NNW 15 24 29.91 1013 10 16.0934 N/A
10:36 am 10:36 Cloudy 37 3 34 1 87 87 NW 9 15 29.94 1014 10 16.0934 N/A
10:55 am 10:55 Cloudy 37 3 34 1 87 87 NNW 12 19 29.91 1013 10 16.0934 N/A
11:36 am 11:36 Cloudy 39 4 34 1 81 81 NW 5 7 29.91 1013 10 16.0934 N/A
11:55 am 11:55 Cloudy 39 4 34 1 81 81 NNW 6 9 29.91 1013 10 16.0934 N/A
12:16 pm 12:16 Cloudy 39 4 34 1 81 81 NNW 9 15 29.91 1013 10 16.0934 N/A
12:36 pm 12:36 Cloudy 39 4 34 1 81 81 WNW 6 9 29.91 1013 10 16.0934 N/A
12:55 pm 12:55 Cloudy 39 4 34 1 81 81 NW 7 11 29.91 1013 10 16.0934 N/A
1:16 pm 13:16 Cloudy 39 4 34 1 81 81 WNW 8 13 29.88 1012 10 16.0934 N/A
1:35 pm 13:35 Cloudy 39 4 34 1 81 81 NW 7 11 29.88 1012 10 16.0934 N/A
1:55 pm 13:55 Cloudy 39 4 34 1 81 81 WNW 8 13 29.88 1012 10 16.0934 N/A
2:16 pm 14:16 Cloudy 39 4 34 1 81 81 WNW 9 15 29.88 1012 10 16.0934 N/A
2:35 pm 14:35 Cloudy 39 4 34 1 81 81 NW 5 7 29.88 1012 10 16.0934 N/A
2:56 pm 14:56 Cloudy 39 4 34 1 81 81 NNW 6 9 29.85 1011 10 16.0934 N/A
3:15 pm 15:15 Cloudy 41 5 34 1 76 76 NNW 5 7 29.85 1011 10 16.0934 N/A
3:35 pm 15:35 Cloudy 39 4 32 0 75 75 NW 5 7 29.85 1011 10 16.0934 N/A
3:56 pm 15:56 Cloudy 41 5 32 0 70 70 W 5 7 29.88 1012 10 16.0934 N/A
4:16 pm 16:16 Cloudy 41 5 32 0 70 70 WNW 3 6 29.88 1012 10 16.0934 N/A
4:35 pm 16:35 Cloudy 41 5 32 0 70 70 NW 3 6 29.88 1012 10 16.0934 N/A
4:56 pm 16:56 Cloudy 39 4 32 0 75 75 Calm 29.88 1012 10 16.0934 N/A
5:15 pm 17:15 Cloudy 39 4 34 1 81 81 W 5 7 29.91 1013 10 16.0934 N/A
5:35 pm 17:35 Cloudy 39 4 34 1 81 81 WSW 3 6 29.88 1012 10 16.0934 N/A
5:56 pm 17:56 Cloudy 39 4 34 1 81 81 Calm 29.88 1012 10 16.0934 N/A
6:15 pm 18:15 Cloudy 39 4 34 1 81 81 SW 3 6 29.88 1012 10 16.0934 N/A
6:36 pm 18:36 Cloudy 39 4 34 1 81 81 SSW 3 6 29.91 1013 10 16.0934 N/A
6:56 pm 18:56 Mostly Cloudy 37 3 34 1 87 87 Calm 29.88 1012 10 16.0934 N/A
7:15 pm 19:15 Partly Cloudy 37 3 34 1 87 87 ESE 5 7 29.85 1011 10 16.0934 N/A
7:36 pm 19:36 Partly Cloudy 37 3 34 1 87 87 E 3 6 29.85 1011 10 16.0934 N/A
7:56 pm 19:56 Mostly Cloudy 37 3 34 1 87 87 E 7 11 29.85 1011 10 16.0934 N/A
8:15 pm 20:15 Mostly Cloudy 37 3 34 1 87 87 SE 5 7 29.85 1011 10 16.0934 N/A
8:36 pm 20:36 Partly Cloudy 37 3 34 1 87 87 ESE 6 9 29.83 1010 10 16.0934 N/A
8:56 pm 20:56 Partly Cloudy 37 3 34 1 87 87 SE 5 7 29.85 1011 10 16.0934 N/A
9:15 pm 21:15 Partly Cloudy 37 3 34 1 87 87 Calm 29.85 1011 10 16.0934 N/A
9:36 pm 21:36 Clear 37 3 34 1 87 87 SE 6 9 29.85 1011 10 16.0934 N/A
9:56 pm 21:56 Clear 37 3 34 1 87 87 SE 8 13 29.83 1010 10 16.0934 N/A
10:15 pm 22:15 Clear 37 3 34 1 87 87 SE 7 11 29.83 1010 10 16.0934 N/A
10:36 pm 22:36 Clear 37 3 34 1 87 87 ESE 9 15 29.83 1010 10 16.0934 N/A
10:56 pm 22:56 Clear 37 3 34 1 87 87 SE 9 15 29.83 1010 7 11.26538 N/A
11:15 pm 23:15 Mostly Cloudy 37 3 34 1 87 87 SE 10 17 29.83 1010 10 16.0934 N/A
11:36 pm 23:36 Mostly Cloudy 37 3 34 1 87 87 SSE 8 13 29.83 1010 10 16.0934 N/A
11:55 pm 23:55 Cloudy 37 3 34 1 87 87 SSE 8 13 29.83 1010 10 16.0934 N/A

Powered by AerisWeather